sat.trackr.live / text

‹ back to catalog

ONEWEB-0241

NORAD 48773 · 2021-045G

PAYLOAD ACTIVE UNKNOWN

§ Identity

Operator
Country
UK
Launch date
2021-05-28
Launch site
VOSTO
Launch vehicle
Mass (kg)
RCS (m²)

Purposes: comms

External: N2YO · Heavens-Above · Gunter

§ Orbital elements

Epoch: 2026-05-24T20:03:27.937728Z

Period
109.46 min
Inclination
87.8986°
Eccentricity
0.0001470
Mean motion
13.15546853 rev/d
Perigee alt
1,200.7 km
Apogee alt
1,202.9 km
Semi-major
7,579.9 km
B*
-1.9896e-4
RAAN
263.8600°
Arg perigee
101.9436°
Mean anomaly
258.1859°
Rev number
24,126

§ Raw data

ONEWEB-02411 48773U 21045G   26144.83574002 -.00000062  00000+0 -19896-3 0  99922 48773  87.8986 263.8600 0001470 101.9436 258.1859 13.15546853241262

JSON: /api/v1/satellites/48773 · /tle

For live sub-satellite position, see the globe view (requires WebGL).

§ Visibility from observer

Set your observer location to see the next 7 days of passes ≥ 10°. The values pass through the URL so the page stays shareable.

No JS? Fill the form by hand. The geolocation button needs JavaScript.